GFSNIL_prec_precacc24_027.txt.gz
Total_Precipitation_Accumulation
0.00 0.00 0.00 0.00 0.00 0.00 0.00 0.00 0.00 0.00 0.00 0.00 0.00 0.00 0.01 0.02 0.04 0.10 0.16 0.25 0.35 0.40
0.00 0.00 0.00 0.00 0.00 0.00 0.00 0.00 0.00 0.00 0.00 0.00 0.00 0.01 0.03 0.11 0.22 0.29 0.31 0.31 0.30 0.31
0.00 0.00 0.00 0.00 0.00 0.00 0.00 0.00 0.00 0.00 0.00 0.01 0.01 0.02 0.05 0.06 0.06 0.07 0.09 0.09 0.07 0.07
0.00 0.00 0.00 0.00 0.00 0.00 0.00 0.00 0.00 0.02 0.03 0.03 0.05 0.08 0.07 0.04 0.03 0.03 0.02 0.01 0.01 0.01
0.00 0.00 0.00 0.00 0.00 0.00 0.00 0.01 0.04 0.05 0.05 0.07 0.08 0.06 0.05 0.02 0.01 0.02 0.02 0.01 0.01 0.01
0.00 0.00 0.00 0.00 0.00 0.01 0.02 0.04 0.07 0.05 0.05 0.05 0.03 0.02 0.01 0.01 0.01 0.00 0.00 0.00 0.00 0.00
0.00 0.00 0.01 0.00 0.00 0.01 0.05 0.07 0.04 0.02 0.02 0.01 0.00 0.00 0.00 0.00 0.00 0.00 0.00 0.00 0.00 0.00
0.00 0.00 0.00 0.00 0.01 0.03 0.05 0.02 0.02 0.01 0.01 0.00 0.00 0.00 0.00 0.00 0.00 0.00 0.00 0.00 0.00 0.00
0.01 0.01 0.03 0.05 0.05 0.08 0.06 0.03 0.01 0.02 0.00 0.00 0.00 0.00 0.00 0.00 0.00 0.00 0.00 0.00 0.00 0.00
0.01 0.01 0.02 0.04 0.07 0.05 0.04 0.06 0.05 0.00 0.00 0.00 0.00 0.00 0.00 0.00 0.00 0.00 0.00 0.00 0.00 0.00
0.01 0.02 0.02 0.04 0.06 0.08 0.12 0.06 0.00 0.00 0.00 0.00 0.00 0.00 0.00 0.00 0.00 0.00 0.00 0.00 0.00 0.00
0.01 0.03 0.02 0.04 0.09 0.08 0.01 0.00 0.00 0.00 0.00 0.00 0.00 0.00 0.00 0.00 0.01 0.00 0.00 0.00 0.01 0.01
0.01 0.03 0.04 0.06 0.02 0.00 0.00 0.00 0.00 0.00 0.00 0.00 0.00 0.01 0.01 0.01 0.01 0.02 0.02 0.02 0.01 0.01
0.02 0.04 0.04 0.02 0.00 0.00 0.00 0.00 0.00 0.01 0.01 0.01 0.01 0.01 0.01 0.02 0.02 0.06 0.07 0.04 0.02 0.05

GFSNIL_prec_precacc24_030.txt.gz
Total_Precipitation_Accumulation
0.00 0.00 0.00 0.00 0.00 0.00 0.00 0.00 0.00 0.00 0.00 0.00 0.00 0.00 0.00 0.01 0.02 0.03 0.07 0.15 0.25 0.31
0.00 0.00 0.00 0.00 0.00 0.00 0.00 0.00 0.00 0.00 0.00 0.00 0.00 0.00 0.00 0.02 0.09 0.15 0.21 0.23 0.23 0.26
0.00 0.00 0.00 0.00 0.00 0.00 0.00 0.00 0.00 0.00 0.00 0.01 0.00 0.00 0.02 0.03 0.03 0.05 0.08 0.08 0.07 0.07
0.00 0.00 0.00 0.00 0.00 0.00 0.00 0.00 0.00 0.02 0.03 0.03 0.05 0.08 0.07 0.04 0.03 0.03 0.02 0.01 0.01 0.01
0.00 0.00 0.00 0.00 0.00 0.00 0.00 0.01 0.04 0.05 0.06 0.07 0.08 0.06 0.05 0.02 0.01 0.02 0.02 0.01 0.01 0.01
0.00 0.00 0.00 0.00 0.00 0.01 0.02 0.04 0.07 0.06 0.06 0.05 0.03 0.02 0.01 0.01 0.01 0.00 0.00 0.00 0.00 0.00
0.00 0.00 0.01 0.00 0.00 0.01 0.05 0.07 0.04 0.02 0.03 0.02 0.00 0.00 0.00 0.00 0.00 0.00 0.00 0.00 0.00 0.00
0.00 0.00 0.00 0.00 0.01 0.03 0.05 0.02 0.02 0.01 0.01 0.00 0.00 0.00 0.00 0.00 0.00 0.00 0.00 0.00 0.00 0.00
0.00 0.01 0.01 0.02 0.02 0.06 0.04 0.01 0.01 0.03 0.01 0.00 0.00 0.00 0.00 0.00 0.00 0.00 0.00 0.00 0.00 0.00
0.00 0.01 0.01 0.03 0.06 0.04 0.04 0.06 0.05 0.00 0.00 0.00 0.00 0.00 0.00 0.00 0.00 0.00 0.00 0.00 0.00 0.00
0.01 0.02 0.02 0.04 0.06 0.08 0.12 0.06 0.00 0.00 0.00 0.00 0.00 0.00 0.00 0.00 0.00 0.00 0.00 0.00 0.00 0.00
0.01 0.03 0.02 0.04 0.09 0.08 0.01 0.00 0.00 0.00 0.00 0.00 0.00 0.00 0.00 0.00 0.01 0.00 0.00 0.00 0.01 0.01
0.01 0.03 0.04 0.06 0.02 0.00 0.00 0.00 0.00 0.00 0.00 0.00 0.00 0.01 0.01 0.01 0.01 0.02 0.02 0.02 0.01 0.01
0.02 0.04 0.04 0.02 0.00 0.00 0.00 0.00 0.00 0.01 0.01 0.01 0.01 0.01 0.01 0.02 0.02 0.05 0.06 0.04 0.03 0.04

GFSNIL_prec_precacc24_033.txt.gz
Total_Precipitation_Accumulation
0.00 0.00 0.00 0.00 0.00 0.00 0.00 0.00 0.00 0.00 0.00 0.00 0.00 0.00 0.00 0.01 0.01 0.01 0.02 0.04 0.06 0.12
0.00 0.00 0.00 0.00 0.00 0.00 0.00 0.00 0.00 0.00 0.00 0.00 0.00 0.00 0.00 0.01 0.03 0.03 0.04 0.08 0.11 0.16
0.00 0.00 0.00 0.00 0.00 0.00 0.00 0.00 0.00 0.00 0.00 0.01 0.00 0.00 0.02 0.02 0.02 0.04 0.07 0.08 0.07 0.07
0.00 0.00 0.00 0.00 0.00 0.00 0.00 0.00 0.00 0.02 0.03 0.03 0.05 0.08 0.06 0.04 0.03 0.03 0.02 0.01 0.01 0.01
0.00 0.00 0.00 0.00 0.00 0.00 0.00 0.01 0.04 0.05 0.05 0.05 0.07 0.06 0.05 0.02 0.01 0.02 0.02 0.01 0.01 0.01
0.00 0.00 0.00 0.00 0.00 0.01 0.02 0.04 0.07 0.06 0.05 0.05 0.03 0.02 0.01 0.01 0.01 0.00 0.00 0.00 0.00 0.00
0.00 0.00 0.01 0.00 0.00 0.01 0.05 0.07 0.04 0.02 0.02 0.01 0.00 0.00 0.00 0.00 0.00 0.00 0.00 0.00 0.00 0.00
0.00 0.00 0.00 0.00 0.01 0.03 0.05 0.01 0.01 0.01 0.01 0.00 0.00 0.00 0.00 0.00 0.00 0.00 0.00 0.00 0.00 0.00
0.00 0.00 0.01 0.02 0.02 0.06 0.04 0.01 0.01 0.03 0.01 0.00 0.00 0.00 0.00 0.00 0.00 0.00 0.00 0.00 0.00 0.00
0.00 0.01 0.01 0.03 0.06 0.04 0.04 0.06 0.05 0.00 0.00 0.00 0.00 0.00 0.00 0.00 0.00 0.00 0.00 0.00 0.00 0.00
0.01 0.02 0.02 0.04 0.06 0.08 0.12 0.06 0.00 0.00 0.00 0.00 0.00 0.00 0.00 0.00 0.00 0.00 0.00 0.00 0.00 0.00
0.01 0.03 0.02 0.04 0.09 0.08 0.01 0.00 0.00 0.00 0.00 0.00 0.00 0.00 0.00 0.00 0.01 0.00 0.00 0.00 0.01 0.01
0.01 0.03 0.04 0.06 0.02 0.00 0.00 0.00 0.00 0.00 0.00 0.00 0.00 0.01 0.01 0.01 0.01 0.02 0.02 0.01 0.01 0.01
0.02 0.04 0.04 0.02 0.00 0.00 0.00 0.00 0.00 0.01 0.01 0.01 0.01 0.01 0.01 0.02 0.02 0.04 0.05 0.03 0.02 0.04

GFSNIL_prec_precacc24_036.txt.gz
Total_Precipitation_Accumulation
0.00 0.00 0.00 0.00 0.00 0.00 0.00 0.00 0.00 0.00 0.00 0.00 0.00 0.00 0.01 0.01 0.03 0.03 0.04 0.03 0.02 0.03
0.00 0.00 0.00 0.00 0.00 0.00 0.00 0.00 0.00 0.00 0.00 0.00 0.00 0.00 0.01 0.02 0.02 0.03 0.03 0.05 0.07 0.11
0.00 0.00 0.00 0.00 0.00 0.00 0.00 0.00 0.00 0.00 0.00 0.01 0.00 0.00 0.01 0.02 0.02 0.04 0.06 0.07 0.06 0.06
0.00 0.00 0.00 0.00 0.00 0.00 0.00 0.00 0.00 0.02 0.03 0.03 0.02 0.02 0.05 0.05 0.04 0.03 0.02 0.01 0.01 0.01
0.00 0.00 0.00 0.00 0.00 0.00 0.00 0.01 0.03 0.05 0.04 0.03 0.03 0.05 0.05 0.02 0.01 0.02 0.02 0.01 0.01 0.01
0.00 0.00 0.00 0.00 0.00 0.00 0.02 0.03 0.05 0.05 0.04 0.04 0.02 0.02 0.01 0.01 0.01 0.00 0.00 0.00 0.00 0.00
0.00 0.00 0.00 0.00 0.00 0.01 0.04 0.06 0.03 0.02 0.02 0.01 0.00 0.00 0.00 0.00 0.00 0.00 0.00 0.00 0.00 0.00
0.00 0.00 0.00 0.00 0.01 0.03 0.04 0.01 0.01 0.01 0.01 0.00 0.00 0.00 0.00 0.00 0.00 0.00 0.00 0.00 0.00 0.00
0.00 0.00 0.01 0.02 0.02 0.06 0.04 0.01 0.01 0.03 0.01 0.00 0.00 0.00 0.00 0.00 0.00 0.00 0.00 0.00 0.00 0.00
0.00 0.01 0.01 0.03 0.06 0.04 0.04 0.06 0.06 0.01 0.00 0.00 0.00 0.00 0.00 0.00 0.00 0.00 0.00 0.00 0.00 0.00
0.01 0.02 0.02 0.04 0.06 0.08 0.12 0.06 0.00 0.00 0.00 0.00 0.00 0.00 0.00 0.00 0.00 0.00 0.00 0.00 0.00 0.00
0.01 0.03 0.02 0.04 0.09 0.08 0.01 0.00 0.00 0.00 0.00 0.00 0.00 0.00 0.00 0.00 0.00 0.00 0.00 0.00 0.00 0.01
0.01 0.03 0.04 0.06 0.02 0.00 0.00 0.00 0.00 0.00 0.00 0.00 0.00 0.01 0.01 0.01 0.01 0.01 0.01 0.01 0.01 0.01
0.02 0.04 0.04 0.02 0.00 0.00 0.00 0.00 0.00 0.00 0.00 0.00 0.01 0.01 0.00 0.01 0.01 0.03 0.04 0.02 0.02 0.03

GFSNIL_prec_precacc24_042.txt.gz
Total_Precipitation_Accumulation
0.00 0.00 0.00 0.00 0.00 0.00 0.00 0.00 0.00 0.00 0.00 0.00 0.00 0.00 0.00 0.01 0.03 0.04 0.08 0.07 0.05 0.05
0.00 0.00 0.00 0.00 0.00 0.00 0.00 0.00 0.00 0.00 0.00 0.00 0.00 0.00 0.01 0.02 0.03 0.04 0.05 0.05 0.06 0.11
0.00 0.00 0.00 0.00 0.00 0.00 0.00 0.00 0.00 0.00 0.00 0.01 0.00 0.00 0.00 0.02 0.02 0.03 0.03 0.03 0.02 0.03
0.00 0.00 0.00 0.00 0.00 0.00 0.00 0.00 0.00 0.00 0.00 0.01 0.01 0.01 0.02 0.03 0.03 0.02 0.01 0.01 0.01 0.01
0.00 0.00 0.00 0.00 0.00 0.00 0.00 0.00 0.00 0.01 0.02 0.01 0.01 0.01 0.01 0.01 0.00 0.01 0.01 0.00 0.00 0.00
0.00 0.00 0.00 0.00 0.00 0.00 0.00 0.01 0.03 0.02 0.01 0.01 0.00 0.00 0.00 0.00 0.00 0.00 0.00 0.00 0.00 0.00
0.00 0.00 0.00 0.00 0.00 0.01 0.04 0.05 0.02 0.01 0.01 0.01 0.00 0.00 0.00 0.00 0.00 0.00 0.00 0.00 0.00 0.00
0.00 0.00 0.00 0.00 0.01 0.03 0.04 0.01 0.01 0.01 0.01 0.00 0.00 0.00 0.00 0.00 0.00 0.00 0.00 0.00 0.00 0.00
0.00 0.00 0.01 0.02 0.02 0.06 0.04 0.01 0.01 0.03 0.01 0.00 0.00 0.00 0.00 0.00 0.00 0.00 0.00 0.00 0.00 0.00
0.00 0.01 0.01 0.03 0.06 0.04 0.04 0.06 0.06 0.01 0.00 0.00 0.00 0.00 0.00 0.00 0.00 0.00 0.00 0.00 0.00 0.00
0.00 0.02 0.02 0.04 0.06 0.08 0.12 0.06 0.00 0.00 0.00 0.00 0.00 0.00 0.00 0.00 0.00 0.00 0.00 0.00 0.00 0.00
0.00 0.03 0.02 0.04 0.09 0.08 0.01 0.00 0.00 0.01 0.01 0.01 0.01 0.00 0.00 0.00 0.00 0.00 0.00 0.00 0.00 0.00
0.01 0.02 0.03 0.03 0.01 0.00 0.00 0.00 0.00 0.00 0.00 0.00 0.00 0.00 0.00 0.00 0.00 0.00 0.00 0.00 0.00 0.00
0.00 0.00 0.00 0.00 0.00 0.00 0.00 0.00 0.00 0.00 0.00 0.00 0.00 0.00 0.00 0.01 0.01 0.01 0.01 0.00 0.00 0.00

GFSNIL_prec_precacc24_045.txt.gz
Total_Precipitation_Accumulation
0.00 0.00 0.00 0.00 0.00 0.00 0.00 0.00 0.00 0.00 0.00 0.00 0.00 0.00 0.00 0.01 0.03 0.04 0.08 0.07 0.05 0.05
0.00 0.00 0.00 0.00 0.00 0.00 0.00 0.00 0.00 0.00 0.00 0.00 0.00 0.00 0.01 0.02 0.03 0.04 0.05 0.04 0.03 0.04
0.00 0.00 0.00 0.00 0.00 0.00 0.00 0.00 0.00 0.00 0.00 0.00 0.00 0.00 0.00 0.01 0.02 0.03 0.03 0.02 0.01 0.01
0.00 0.00 0.00 0.00 0.00 0.00 0.00 0.00 0.00 0.00 0.00 0.01 0.01 0.01 0.02 0.03 0.03 0.02 0.01 0.00 0.00 0.01
0.00 0.00 0.00 0.00 0.00 0.00 0.00 0.00 0.00 0.01 0.02 0.01 0.01 0.01 0.01 0.00 0.00 0.00 0.00 0.00 0.00 0.00
0.00 0.00 0.00 0.00 0.00 0.00 0.00 0.01 0.03 0.02 0.01 0.01 0.00 0.00 0.00 0.00 0.00 0.00 0.00 0.00 0.00 0.00
0.00 0.00 0.00 0.00 0.00 0.01 0.04 0.05 0.02 0.01 0.01 0.01 0.00 0.00 0.00 0.00 0.00 0.00 0.00 0.00 0.00 0.00
0.00 0.00 0.00 0.00 0.01 0.03 0.04 0.01 0.01 0.01 0.01 0.00 0.00 0.00 0.00 0.00 0.00 0.00 0.00 0.00 0.00 0.00
0.00 0.00 0.00 0.00 0.01 0.03 0.04 0.01 0.01 0.03 0.01 0.00 0.00 0.00 0.00 0.00 0.00 0.00 0.00 0.00 0.00 0.00
0.00 0.00 0.00 0.00 0.00 0.01 0.04 0.06 0.06 0.01 0.00 0.00 0.00 0.00 0.00 0.00 0.00 0.00 0.00 0.00 0.00 0.00
0.00 0.00 0.00 0.00 0.01 0.06 0.12 0.06 0.00 0.00 0.00 0.00 0.00 0.00 0.00 0.00 0.00 0.00 0.00 0.00 0.00 0.00
0.00 0.00 0.00 0.00 0.00 0.04 0.01 0.00 0.00 0.01 0.01 0.01 0.01 0.00 0.00 0.00 0.00 0.00 0.00 0.00 0.00 0.00
0.00 0.00 0.00 0.00 0.00 0.00 0.00 0.00 0.00 0.00 0.00 0.00 0.00 0.00 0.00 0.00 0.00 0.00 0.00 0.00 0.00 0.00
0.00 0.00 0.00 0.00 0.00 0.00 0.00 0.00 0.00 0.00 0.00 0.00 0.00 0.00 0.00 0.00 0.00 0.00 0.01 0.00 0.00 0.00

GFSNIL_prec_precacc24_048.txt.gz
Total_Precipitation_Accumulation
0.00 0.00 0.00 0.00 0.00 0.00 0.00 0.00 0.00 0.00 0.00 0.00 0.00 0.00 0.00 0.01 0.03 0.04 0.08 0.07 0.05 0.04
0.00 0.00 0.00 0.00 0.00 0.00 0.00 0.00 0.00 0.00 0.00 0.00 0.00 0.00 0.01 0.02 0.03 0.04 0.05 0.04 0.03 0.02
0.00 0.00 0.00 0.00 0.00 0.00 0.00 0.00 0.00 0.00 0.00 0.00 0.00 0.00 0.00 0.01 0.02 0.03 0.03 0.01 0.00 0.00
0.00 0.00 0.00 0.00 0.00 0.00 0.00 0.01 0.00 0.00 0.00 0.01 0.01 0.01 0.02 0.03 0.03 0.02 0.01 0.00 0.00 0.01
0.01 0.01 0.01 0.01 0.01 0.00 0.00 0.00 0.00 0.01 0.02 0.01 0.01 0.01 0.01 0.00 0.00 0.00 0.00 0.00 0.00 0.00
0.02 0.01 0.01 0.00 0.00 0.00 0.00 0.00 0.01 0.02 0.01 0.01 0.00 0.00 0.00 0.00 0.00 0.00 0.00 0.00 0.00 0.00
0.01 0.00 0.00 0.00 0.00 0.00 0.00 0.00 0.01 0.01 0.01 0.01 0.00 0.00 0.00 0.00 0.00 0.00 0.00 0.00 0.00 0.00
0.00 0.00 0.00 0.00 0.00 0.00 0.00 0.00 0.00 0.01 0.01 0.00 0.00 0.00 0.00 0.00 0.00 0.00 0.00 0.00 0.00 0.00
0.00 0.00 0.00 0.00 0.00 0.00 0.00 0.00 0.01 0.03 0.01 0.00 0.00 0.00 0.00 0.00 0.00 0.00 0.00 0.00 0.00 0.00
0.00 0.00 0.00 0.00 0.00 0.00 0.00 0.00 0.03 0.01 0.00 0.00 0.00 0.00 0.00 0.00 0.00 0.00 0.00 0.00 0.00 0.00
0.00 0.00 0.00 0.00 0.00 0.00 0.00 0.00 0.00 0.00 0.00 0.00 0.00 0.00 0.00 0.00 0.00 0.00 0.00 0.00 0.00 0.00
0.00 0.00 0.02 0.03 0.01 0.00 0.00 0.00 0.00 0.01 0.01 0.01 0.01 0.00 0.00 0.00 0.00 0.00 0.00 0.00 0.00 0.00
0.02 0.06 0.04 0.01 0.00 0.00 0.00 0.00 0.00 0.00 0.00 0.00 0.00 0.00 0.00 0.00 0.00 0.00 0.00 0.00 0.00 0.00
0.04 0.00 0.00 0.00 0.00 0.00 0.00 0.00 0.00 0.00 0.00 0.00 0.00 0.00 0.00 0.00 0.00 0.00 0.00 0.00 0.00 0.00

GFSNIL_prec_precacc24_051.txt.gz
Total_Precipitation_Accumulation
0.00 0.00 0.00 0.00 0.00 0.00 0.00 0.00 0.01 0.02 0.01 0.00 0.00 0.00 0.00 0.01 0.03 0.04 0.08 0.07 0.05 0.04
0.00 0.00 0.00 0.00 0.00 0.00 0.00 0.01 0.03 0.02 0.01 0.01 0.00 0.00 0.01 0.02 0.03 0.04 0.05 0.04 0.03 0.02
0.00 0.01 0.00 0.00 0.01 0.01 0.02 0.05 0.05 0.02 0.01 0.00 0.00 0.00 0.00 0.01 0.02 0.03 0.03 0.01 0.00 0.00
0.01 0.01 0.01 0.01 0.01 0.01 0.03 0.06 0.03 0.01 0.00 0.00 0.01 0.01 0.02 0.03 0.03 0.02 0.01 0.00 0.00 0.01
0.01 0.02 0.01 0.02 0.04 0.09 0.09 0.02 0.01 0.00 0.00 0.01 0.01 0.01 0.01 0.00 0.00 0.00 0.00 0.00 0.00 0.00
0.03 0.02 0.03 0.05 0.05 0.03 0.01 0.01 0.00 0.00 0.00 0.01 0.00 0.00 0.00 0.00 0.00 0.00 0.00 0.00 0.00 0.00
0.04 0.03 0.01 0.01 0.00 0.00 0.00 0.00 0.00 0.00 0.01 0.00 0.00 0.00 0.00 0.00 0.00 0.00 0.00 0.00 0.00 0.00
0.01 0.00 0.00 0.00 0.00 0.00 0.00 0.00 0.00 0.00 0.00 0.00 0.00 0.00 0.00 0.00 0.00 0.00 0.00 0.00 0.00 0.00
0.00 0.00 0.00 0.00 0.00 0.00 0.00 0.00 0.00 0.00 0.00 0.00 0.00 0.00 0.00 0.00 0.00 0.00 0.00 0.00 0.00 0.00
0.00 0.00 0.00 0.00 0.00 0.00 0.01 0.01 0.00 0.00 0.00 0.00 0.00 0.00 0.00 0.00 0.00 0.00 0.00 0.00 0.00 0.00
0.00 0.00 0.00 0.00 0.03 0.05 0.02 0.00 0.00 0.00 0.00 0.00 0.00 0.00 0.00 0.00 0.00 0.00 0.00 0.00 0.00 0.00
0.00 0.00 0.03 0.07 0.06 0.02 0.00 0.00 0.00 0.01 0.01 0.01 0.01 0.00 0.00 0.00 0.00 0.00 0.00 0.00 0.00 0.00
0.03 0.11 0.09 0.03 0.00 0.00 0.00 0.00 0.00 0.00 0.00 0.00 0.00 0.00 0.00 0.00 0.00 0.00 0.00 0.00 0.00 0.00
0.08 0.02 0.00 0.00 0.00 0.00 0.00 0.00 0.00 0.00 0.00 0.00 0.00 0.00 0.00 0.00 0.00 0.00 0.00 0.00 0.00 0.00

GFSNIL_prec_precacc24_057.txt.gz
Total_Precipitation_Accumulation
0.11 0.03 0.01 0.01 0.02 0.02 0.01 0.00 0.01 0.02 0.02 0.02 0.02 0.06 0.08 0.06 0.04 0.04 0.08 0.07 0.05 0.04
0.13 0.06 0.03 0.03 0.02 0.01 0.00 0.01 0.03 0.03 0.04 0.09 0.13 0.07 0.02 0.02 0.02 0.04 0.05 0.04 0.03 0.02
0.10 0.07 0.03 0.02 0.01 0.01 0.02 0.07 0.08 0.10 0.13 0.09 0.04 0.01 0.01 0.02 0.02 0.03 0.03 0.01 0.00 0.00
0.10 0.06 0.05 0.05 0.03 0.02 0.06 0.12 0.14 0.12 0.05 0.02 0.00 0.01 0.02 0.03 0.03 0.02 0.01 0.00 0.00 0.01
0.18 0.20 0.20 0.15 0.11 0.15 0.17 0.12 0.05 0.03 0.05 0.06 0.04 0.02 0.02 0.01 0.00 0.00 0.00 0.00 0.00 0.00
0.21 0.19 0.19 0.17 0.16 0.16 0.15 0.03 0.02 0.05 0.06 0.04 0.04 0.02 0.01 0.00 0.00 0.00 0.00 0.00 0.00 0.00
0.23 0.20 0.15 0.09 0.06 0.04 0.03 0.02 0.03 0.05 0.06 0.04 0.02 0.00 0.00 0.00 0.00 0.00 0.00 0.00 0.00 0.00
0.10 0.06 0.04 0.03 0.01 0.02 0.05 0.06 0.07 0.04 0.01 0.01 0.01 0.00 0.00 0.00 0.00 0.00 0.00 0.00 0.00 0.00
0.02 0.01 0.01 0.00 0.01 0.02 0.02 0.02 0.02 0.03 0.04 0.02 0.00 0.00 0.00 0.00 0.00 0.00 0.00 0.00 0.00 0.00
0.01 0.00 0.00 0.00 0.00 0.01 0.04 0.07 0.09 0.09 0.05 0.02 0.01 0.00 0.00 0.00 0.00 0.00 0.00 0.00 0.00 0.00
0.00 0.00 0.00 0.01 0.05 0.10 0.12 0.14 0.09 0.03 0.01 0.00 0.00 0.00 0.00 0.00 0.00 0.00 0.00 0.00 0.00 0.00
0.00 0.00 0.04 0.11 0.18 0.16 0.09 0.02 0.00 0.01 0.01 0.01 0.01 0.00 0.00 0.00 0.00 0.00 0.00 0.00 0.00 0.00
0.04 0.18 0.23 0.14 0.04 0.00 0.00 0.00 0.00 0.00 0.00 0.00 0.00 0.00 0.00 0.00 0.00 0.00 0.00 0.00 0.00 0.00
0.15 0.06 0.00 0.00 0.00 0.00 0.00 0.00 0.00 0.00 0.00 0.00 0.00 0.00 0.00 0.00 0.00 0.00 0.00 0.00 0.00 0.00

GFSNIL_prec_precacc24_063.txt.gz
Total_Precipitation_Accumulation
0.19 0.06 0.04 0.04 0.09 0.08 0.05 0.03 0.05 0.06 0.05 0.05 0.05 0.07 0.08 0.05 0.02 0.01 0.03 0.04 0.03 0.01
0.24 0.11 0.07 0.07 0.06 0.06 0.05 0.06 0.07 0.08 0.13 0.22 0.25 0.10 0.04 0.04 0.04 0.03 0.04 0.03 0.01 0.00
0.22 0.19 0.10 0.07 0.07 0.07 0.07 0.10 0.12 0.15 0.19 0.14 0.07 0.07 0.08 0.06 0.04 0.03 0.02 0.01 0.01 0.00
0.18 0.16 0.15 0.16 0.13 0.09 0.11 0.17 0.21 0.15 0.13 0.20 0.20 0.14 0.07 0.06 0.08 0.07 0.04 0.01 0.00 0.00
0.23 0.26 0.27 0.23 0.17 0.19 0.20 0.17 0.18 0.37 0.48 0.31 0.17 0.14 0.12 0.10 0.06 0.04 0.02 0.01 0.00 0.00
0.24 0.24 0.24 0.22 0.21 0.30 0.48 0.61 0.61 0.49 0.33 0.19 0.14 0.13 0.12 0.10 0.07 0.03 0.01 0.00 0.00 0.00
0.29 0.23 0.18 0.14 0.14 0.18 0.17 0.14 0.10 0.09 0.10 0.14 0.13 0.09 0.08 0.05 0.02 0.00 0.00 0.00 0.00 0.00
0.13 0.08 0.06 0.04 0.02 0.03 0.05 0.07 0.07 0.07 0.06 0.05 0.07 0.08 0.06 0.02 0.00 0.00 0.00 0.00 0.00 0.00
0.07 0.02 0.01 0.00 0.02 0.03 0.03 0.02 0.03 0.05 0.09 0.09 0.06 0.04 0.02 0.00 0.00 0.00 0.00 0.00 0.00 0.00
0.01 0.01 0.00 0.01 0.00 0.01 0.04 0.07 0.12 0.15 0.11 0.04 0.01 0.01 0.00 0.00 0.00 0.00 0.00 0.00 0.00 0.00
0.00 0.00 0.00 0.01 0.05 0.10 0.13 0.16 0.13 0.04 0.01 0.00 0.00 0.00 0.00 0.00 0.00 0.00 0.00 0.00 0.00 0.00
0.00 0.00 0.04 0.12 0.19 0.18 0.10 0.02 0.00 0.00 0.00 0.00 0.01 0.00 0.00 0.00 0.00 0.00 0.00 0.00 0.00 0.00
0.04 0.18 0.23 0.15 0.05 0.00 0.00 0.00 0.00 0.00 0.00 0.00 0.00 0.00 0.00 0.00 0.00 0.00 0.00 0.00 0.00 0.00
0.15 0.06 0.00 0.00 0.00 0.00 0.00 0.00 0.00 0.00 0.00 0.00 0.00 0.00 0.00 0.00 0.00 0.00 0.00 0.00 0.00 0.00

GFSNIL_prec_precacc24_066.txt.gz
Total_Precipitation_Accumulation
0.19 0.06 0.05 0.04 0.09 0.14 0.12 0.08 0.06 0.06 0.06 0.07 0.09 0.18 0.22 0.23 0.19 0.16 0.09 0.03 0.02 0.02
0.24 0.11 0.07 0.07 0.12 0.14 0.09 0.07 0.07 0.09 0.14 0.25 0.32 0.25 0.16 0.15 0.14 0.11 0.06 0.03 0.02 0.02
0.22 0.23 0.14 0.15 0.23 0.20 0.13 0.14 0.14 0.17 0.22 0.15 0.10 0.13 0.20 0.21 0.13 0.06 0.04 0.03 0.03 0.03
0.23 0.23 0.35 0.50 0.28 0.16 0.19 0.25 0.26 0.18 0.14 0.23 0.31 0.28 0.19 0.15 0.14 0.12 0.07 0.04 0.03 0.01
0.58 0.51 0.33 0.37 0.29 0.28 0.28 0.23 0.20 0.38 0.49 0.35 0.22 0.18 0.18 0.14 0.08 0.06 0.04 0.03 0.01 0.00
0.52 0.26 0.25 0.25 0.26 0.34 0.53 0.65 0.63 0.51 0.37 0.24 0.18 0.15 0.12 0.10 0.07 0.04 0.01 0.00 0.00 0.00
0.33 0.25 0.24 0.16 0.21 0.21 0.19 0.16 0.11 0.10 0.11 0.14 0.13 0.09 0.08 0.06 0.03 0.01 0.00 0.00 0.00 0.00
0.18 0.18 0.09 0.06 0.06 0.05 0.06 0.07 0.07 0.07 0.06 0.05 0.07 0.09 0.06 0.02 0.00 0.00 0.00 0.00 0.00 0.00
0.13 0.09 0.05 0.04 0.02 0.03 0.03 0.02 0.03 0.05 0.09 0.09 0.06 0.06 0.02 0.00 0.00 0.00 0.00 0.00 0.00 0.00
0.06 0.04 0.02 0.01 0.01 0.01 0.04 0.07 0.12 0.15 0.11 0.04 0.01 0.01 0.00 0.00 0.00 0.00 0.00 0.00 0.00 0.00
0.00 0.00 0.00 0.01 0.05 0.10 0.13 0.16 0.13 0.04 0.01 0.00 0.00 0.00 0.00 0.00 0.00 0.00 0.00 0.00 0.00 0.00
0.00 0.00 0.04 0.12 0.19 0.18 0.10 0.02 0.00 0.00 0.00 0.00 0.00 0.00 0.00 0.00 0.00 0.00 0.00 0.00 0.00 0.00
0.04 0.18 0.23 0.15 0.05 0.00 0.00 0.00 0.00 0.00 0.00 0.00 0.00 0.00 0.00 0.00 0.00 0.00 0.00 0.00 0.00 0.00
0.15 0.06 0.00 0.00 0.00 0.00 0.00 0.00 0.00 0.00 0.00 0.00 0.00 0.00 0.00 0.00 0.00 0.00 0.00 0.00 0.00 0.00

GFSNIL_prec_precacc24_072.txt.gz
Total_Precipitation_Accumulation
0.19 0.07 0.13 0.05 0.10 0.14 0.12 0.08 0.06 0.06 0.12 0.16 0.15 0.19 0.25 0.29 0.27 0.26 0.26 0.25 0.21 0.13
0.27 0.14 0.08 0.11 0.13 0.17 0.13 0.09 0.13 0.20 0.23 0.34 0.36 0.26 0.17 0.16 0.18 0.19 0.17 0.10 0.05 0.03
0.23 0.33 0.23 0.22 0.41 0.44 0.43 0.37 0.40 0.42 0.40 0.31 0.21 0.17 0.22 0.23 0.19 0.12 0.07 0.06 0.05 0.04
0.23 0.26 0.66 0.99 1.03 0.88 0.86 0.93 0.72 0.47 0.34 0.41 0.46 0.33 0.20 0.16 0.16 0.13 0.09 0.05 0.04 0.02
0.92 1.00 1.08 1.43 1.38 1.15 0.88 0.58 0.42 0.58 0.60 0.44 0.29 0.21 0.19 0.16 0.10 0.07 0.05 0.03 0.02 0.01
1.27 1.31 1.57 1.22 0.84 0.73 0.73 0.77 0.72 0.60 0.44 0.29 0.21 0.16 0.14 0.11 0.08 0.05 0.02 0.01 0.00 0.00
0.65 0.59 0.54 0.38 0.34 0.30 0.26 0.24 0.19 0.18 0.16 0.16 0.14 0.10 0.09 0.06 0.03 0.01 0.00 0.00 0.00 0.00
0.27 0.28 0.17 0.13 0.13 0.12 0.13 0.14 0.14 0.10 0.08 0.07 0.08 0.10 0.08 0.03 0.00 0.00 0.00 0.00 0.00 0.00
0.18 0.13 0.10 0.10 0.04 0.06 0.06 0.05 0.06 0.07 0.11 0.10 0.07 0.08 0.03 0.01 0.00 0.00 0.00 0.00 0.00 0.00
0.07 0.06 0.04 0.03 0.02 0.01 0.04 0.08 0.12 0.15 0.11 0.05 0.01 0.02 0.00 0.00 0.00 0.00 0.00 0.00 0.00 0.00
0.01 0.00 0.00 0.01 0.05 0.10 0.13 0.16 0.13 0.04 0.01 0.00 0.00 0.00 0.00 0.00 0.00 0.00 0.00 0.00 0.00 0.00
0.00 0.00 0.02 0.08 0.17 0.18 0.10 0.02 0.00 0.00 0.00 0.00 0.00 0.00 0.00 0.00 0.00 0.00 0.00 0.00 0.00 0.00
0.02 0.13 0.19 0.14 0.05 0.00 0.00 0.00 0.00 0.00 0.00 0.00 0.00 0.00 0.00 0.00 0.00 0.00 0.00 0.00 0.00 0.00
0.11 0.05 0.00 0.00 0.00 0.00 0.00 0.00 0.00 0.00 0.00 0.00 0.00 0.00 0.00 0.00 0.00 0.00 0.00 0.00 0.00 0.00

GFSNIL_prec_precacc24_075.txt.gz
Total_Precipitation_Accumulation
0.19 0.07 0.13 0.05 0.10 0.14 0.12 0.08 0.06 0.04 0.10 0.18 0.20 0.30 0.36 0.38 0.32 0.29 0.27 0.26 0.23 0.17
0.27 0.14 0.08 0.11 0.13 0.17 0.13 0.09 0.11 0.18 0.22 0.36 0.45 0.38 0.31 0.31 0.26 0.22 0.18 0.12 0.07 0.04
0.23 0.33 0.23 0.22 0.41 0.46 0.47 0.37 0.40 0.45 0.47 0.37 0.27 0.26 0.34 0.32 0.23 0.15 0.10 0.08 0.07 0.05
0.22 0.26 0.65 1.02 1.07 0.93 0.94 1.02 0.92 0.73 0.58 0.58 0.56 0.45 0.32 0.24 0.19 0.14 0.10 0.06 0.04 0.02
0.94 1.01 1.12 1.50 1.45 1.17 1.03 0.89 0.77 0.83 0.75 0.51 0.34 0.26 0.22 0.19 0.12 0.09 0.07 0.04 0.03 0.01
1.27 1.33 1.62 1.45 1.27 1.15 1.05 0.94 0.78 0.61 0.45 0.30 0.23 0.19 0.18 0.16 0.13 0.08 0.05 0.02 0.01 0.00
0.65 0.58 0.59 0.45 0.47 0.39 0.34 0.28 0.21 0.22 0.21 0.20 0.18 0.15 0.15 0.11 0.06 0.03 0.02 0.01 0.00 0.00
0.30 0.29 0.18 0.15 0.15 0.17 0.19 0.19 0.16 0.14 0.12 0.12 0.14 0.16 0.12 0.06 0.03 0.02 0.02 0.01 0.00 0.00
0.22 0.14 0.10 0.10 0.06 0.07 0.09 0.09 0.09 0.11 0.15 0.15 0.10 0.15 0.08 0.03 0.01 0.01 0.01 0.00 0.00 0.00
0.09 0.07 0.04 0.03 0.02 0.02 0.05 0.09 0.15 0.18 0.15 0.08 0.05 0.08 0.02 0.02 0.00 0.00 0.00 0.00 0.00 0.00
0.02 0.01 0.00 0.02 0.04 0.06 0.11 0.17 0.15 0.07 0.03 0.02 0.02 0.02 0.01 0.01 0.00 0.00 0.00 0.00 0.00 0.00
0.00 0.01 0.01 0.06 0.14 0.17 0.11 0.03 0.02 0.01 0.00 0.00 0.00 0.01 0.00 0.00 0.00 0.00 0.00 0.00 0.00 0.00
0.01 0.09 0.15 0.13 0.06 0.01 0.01 0.01 0.00 0.00 0.00 0.00 0.00 0.01 0.00 0.00 0.00 0.00 0.00 0.00 0.00 0.00
0.08 0.05 0.01 0.00 0.00 0.00 0.00 0.00 0.00 0.00 0.00 0.00 0.00 0.00 0.00 0.00 0.00 0.00 0.00 0.00 0.00 0.00

GFSNIL_prec_precacc24_078.txt.gz
Total_Precipitation_Accumulation
0.13 0.06 0.13 0.05 0.10 0.14 0.12 0.08 0.06 0.04 0.10 0.16 0.19 0.29 0.39 0.43 0.41 0.40 0.38 0.38 0.29 0.19
0.24 0.13 0.08 0.11 0.13 0.17 0.13 0.09 0.10 0.17 0.19 0.29 0.40 0.38 0.34 0.39 0.45 0.48 0.43 0.25 0.12 0.07
0.22 0.33 0.23 0.22 0.41 0.45 0.46 0.36 0.37 0.39 0.37 0.32 0.28 0.28 0.36 0.36 0.31 0.27 0.22 0.21 0.22 0.12
0.21 0.25 0.65 1.02 1.07 0.93 0.93 1.00 0.83 0.68 0.64 0.68 0.68 0.59 0.44 0.30 0.25 0.23 0.18 0.14 0.12 0.11
0.90 0.94 1.06 1.46 1.43 1.16 1.01 0.84 0.76 0.87 0.79 0.57 0.39 0.29 0.24 0.21 0.15 0.12 0.11 0.10 0.10 0.07
1.24 1.27 1.56 1.42 1.25 1.15 1.05 0.97 0.80 0.64 0.47 0.31 0.23 0.19 0.18 0.16 0.16 0.13 0.12 0.12 0.11 0.09
0.69 0.57 0.60 0.45 0.46 0.41 0.39 0.31 0.24 0.22 0.21 0.21 0.18 0.16 0.16 0.16 0.14 0.13 0.13 0.13 0.09 0.04
0.31 0.34 0.24 0.19 0.17 0.19 0.20 0.25 0.26 0.20 0.16 0.13 0.16 0.18 0.16 0.13 0.11 0.10 0.09 0.08 0.05 0.03
0.22 0.16 0.14 0.13 0.06 0.07 0.13 0.14 0.14 0.16 0.20 0.18 0.14 0.22 0.14 0.08 0.05 0.08 0.07 0.06 0.04 0.04
0.10 0.08 0.05 0.03 0.03 0.03 0.05 0.09 0.17 0.23 0.19 0.12 0.10 0.16 0.08 0.07 0.02 0.02 0.03 0.03 0.02 0.01
0.03 0.01 0.01 0.02 0.03 0.04 0.07 0.16 0.15 0.09 0.05 0.04 0.06 0.08 0.04 0.04 0.01 0.01 0.01 0.01 0.00 0.00
0.02 0.01 0.01 0.04 0.09 0.12 0.12 0.07 0.03 0.03 0.03 0.03 0.04 0.04 0.02 0.01 0.00 0.00 0.00 0.00 0.00 0.00
0.01 0.04 0.06 0.07 0.05 0.04 0.05 0.04 0.03 0.04 0.03 0.03 0.02 0.04 0.02 0.01 0.00 0.00 0.00 0.00 0.00 0.00
0.03 0.02 0.02 0.03 0.04 0.04 0.03 0.02 0.02 0.02 0.01 0.01 0.01 0.02 0.01 0.00 0.00 0.00 0.00 0.00 0.00 0.00

GFSNIL_prec_precacc24_084.txt.gz
Total_Precipitation_Accumulation
0.00 0.01 0.10 0.03 0.05 0.09 0.09 0.06 0.04 0.04 0.10 0.16 0.18 0.24 0.31 0.38 0.39 0.40 0.39 0.42 0.43 0.41
0.04 0.03 0.01 0.05 0.08 0.13 0.10 0.05 0.08 0.16 0.19 0.28 0.33 0.31 0.31 0.37 0.44 0.48 0.44 0.32 0.23 0.16
0.04 0.19 0.15 0.17 0.36 0.42 0.44 0.33 0.36 0.38 0.36 0.28 0.24 0.25 0.34 0.33 0.30 0.27 0.23 0.25 0.27 0.25
0.09 0.15 0.56 0.94 1.01 0.89 0.89 0.94 0.78 0.64 0.57 0.60 0.62 0.57 0.46 0.34 0.30 0.29 0.26 0.21 0.22 0.28
0.74 0.78 0.89 1.32 1.35 1.09 0.94 0.75 0.66 0.66 0.60 0.50 0.36 0.28 0.22 0.20 0.19 0.22 0.25 0.25 0.27 0.28
1.10 1.13 1.42 1.29 1.12 0.90 0.60 0.45 0.39 0.38 0.33 0.26 0.19 0.14 0.15 0.16 0.17 0.15 0.14 0.13 0.15 0.16
0.55 0.44 0.46 0.34 0.33 0.24 0.24 0.22 0.20 0.20 0.16 0.12 0.10 0.12 0.17 0.16 0.15 0.14 0.14 0.14 0.13 0.10
0.27 0.30 0.22 0.19 0.18 0.21 0.20 0.21 0.21 0.19 0.15 0.14 0.14 0.18 0.19 0.14 0.12 0.12 0.12 0.12 0.10 0.08
0.22 0.17 0.15 0.15 0.09 0.09 0.13 0.14 0.14 0.13 0.14 0.13 0.14 0.28 0.20 0.13 0.08 0.11 0.12 0.12 0.10 0.10
0.10 0.07 0.05 0.04 0.03 0.04 0.09 0.12 0.13 0.12 0.11 0.10 0.12 0.26 0.16 0.16 0.06 0.05 0.07 0.07 0.06 0.04
0.03 0.01 0.02 0.02 0.02 0.03 0.03 0.04 0.05 0.06 0.07 0.07 0.14 0.19 0.09 0.09 0.03 0.03 0.05 0.06 0.05 0.06
0.02 0.02 0.02 0.02 0.03 0.04 0.05 0.06 0.05 0.05 0.05 0.05 0.08 0.12 0.07 0.05 0.01 0.03 0.04 0.04 0.04 0.04
0.01 0.03 0.04 0.04 0.04 0.05 0.06 0.06 0.05 0.08 0.08 0.10 0.05 0.12 0.06 0.04 0.00 0.01 0.01 0.02 0.02 0.03
0.02 0.02 0.03 0.04 0.05 0.05 0.05 0.05 0.06 0.06 0.05 0.06 0.07 0.09 0.07 0.04 0.01 0.00 0.00 0.00 0.00 0.00

GFSNIL_prec_precacc24_087.txt.gz
Total_Precipitation_Accumulation
0.01 0.02 0.09 0.01 0.01 0.06 0.07 0.05 0.02 0.05 0.09 0.13 0.15 0.22 0.31 0.38 0.39 0.40 0.39 0.40 0.43 0.42
0.04 0.04 0.01 0.04 0.07 0.12 0.08 0.04 0.06 0.13 0.16 0.17 0.21 0.30 0.31 0.35 0.41 0.46 0.41 0.31 0.23 0.17
0.02 0.15 0.14 0.16 0.34 0.40 0.42 0.32 0.33 0.34 0.32 0.26 0.22 0.22 0.32 0.31 0.27 0.24 0.23 0.26 0.28 0.27
0.05 0.12 0.52 0.87 0.94 0.85 0.86 0.91 0.75 0.63 0.54 0.48 0.50 0.50 0.43 0.30 0.25 0.25 0.24 0.23 0.24 0.30
0.74 0.77 0.87 1.28 1.32 1.07 0.93 0.75 0.62 0.51 0.32 0.29 0.25 0.20 0.16 0.16 0.15 0.18 0.24 0.26 0.31 0.30
1.10 1.12 1.41 1.28 1.11 0.89 0.59 0.37 0.21 0.15 0.15 0.14 0.12 0.09 0.09 0.09 0.11 0.12 0.14 0.14 0.16 0.17
0.53 0.43 0.45 0.33 0.33 0.23 0.23 0.20 0.18 0.17 0.14 0.11 0.09 0.09 0.11 0.11 0.13 0.14 0.14 0.14 0.13 0.10
0.25 0.28 0.21 0.18 0.18 0.20 0.19 0.21 0.21 0.19 0.15 0.13 0.13 0.14 0.14 0.12 0.12 0.12 0.12 0.12 0.11 0.10
0.17 0.16 0.15 0.15 0.09 0.09 0.12 0.14 0.14 0.13 0.13 0.11 0.12 0.26 0.19 0.13 0.09 0.11 0.13 0.13 0.12 0.15
0.09 0.07 0.05 0.04 0.03 0.04 0.09 0.12 0.14 0.11 0.10 0.10 0.13 0.27 0.16 0.16 0.07 0.06 0.08 0.08 0.08 0.07
0.03 0.01 0.02 0.02 0.02 0.03 0.03 0.05 0.06 0.07 0.07 0.08 0.15 0.21 0.12 0.11 0.03 0.03 0.05 0.08 0.08 0.09
0.02 0.02 0.02 0.02 0.03 0.04 0.05 0.06 0.05 0.05 0.05 0.06 0.09 0.14 0.09 0.06 0.01 0.03 0.04 0.06 0.08 0.09
0.01 0.03 0.04 0.04 0.04 0.05 0.06 0.06 0.06 0.08 0.08 0.12 0.06 0.14 0.07 0.04 0.00 0.01 0.02 0.04 0.07 0.11
0.02 0.02 0.03 0.04 0.05 0.05 0.05 0.06 0.07 0.07 0.06 0.06 0.08 0.10 0.09 0.05 0.01 0.00 0.01 0.01 0.01 0.02